Regional Weather Roundup
Issued by NWS Kansas City/Pleasant Hill, MO

Home | Current Version | Previous Version | Graphics & Text | Print | Product List | Glossary Off
Versions: 1 2 3 4 5 6 7 8 9 10 11 12 13 14 15 16 17 18 19 20 21 22 23 24 25 26 27 28 29 30 31 32 33 34 35 36 37 38 39 40 41 42 43 44 45 46 47 48 49 50

756
ASUS43 KEAX 111010
RWREAX

WEATHER ROUNDUP FOR EASTERN KANSAS AND NORTHWEST MISSOURI
NATIONAL WEATHER SERVICE KANSAS CITY/PLEASANT HILL MO
400 AM CST THU FEB 11 2016

KSZ040-057-103>105-MOZ028-029-037-043-111100-
...KANSAS CITY METROPOLITAN AREA...

CITY           SKY/WX    TMP DP  RH WIND       PRES   REMARKS
K.C. INTL      PTCLDY    22  19  89 NE12      30.17R WCI  10
K.C. DOWNTOWN  PTCLDY    24  19  81 NE8       30.19R WCI  15
LEES SUMMIT    CLEAR     23  18  81 NE10      30.16R WCI  12
OLATHE - IXD   PTCLDY    23  19  85 NE8       30.15R WCI  14
OLATHE - OJC   PTCLDY    23  18  81 NE13      30.15R WCI  11
LAWRENCE       CLEAR     24  19  81 NE12      30.17R WCI  13

$$

MOZ001>008-011>017-020>025-030>033-038>040-044>046-053-054-111100-
...NORTHERN AND CENTRAL MISSOURI...

CITY           SKY/WX    TMP DP  RH WIND       PRES   REMARKS
ST. JOSEPH     CLOUDY    23  18  81 NE8       30.21R WCI  14
MOSBY          MOSUNNY   25  19  80 N7        30.20R WCI  17
WARRENSBURG    CLEAR     23  19  86 N8        30.17R WCI  14
WHITEMAN AFB   CLEAR     22  19  87 NE9       30.15R WCI  12
CLINTON          N/A     27  23  86 NE8       30.13R WCI  18
SEDALIA        CLEAR     23  18  81 NE8       30.16R WCI  14
WARSAW         NOT AVBL
CHILLICOTHE      N/A     24  17  74 NE9       30.23R WCI  14
KIRKSVILLE     CLOUDY    19  13  77 NE13      30.22R WCI   6

$$

MOZ041-047>049-056>058-063>065-088>090-097-111100-
...EASTERN AND SOUTHERN MISSOURI...

CITY           SKY/WX    TMP DP  RH WIND       PRES   REMARKS
ST. LOUIS INTL CLOUDY    24  18  77 NE8       30.20R WCI  15
SPIRIT OF STL  CLOUDY    24  20  84 NE8       30.19R WCI  15
COLUMBIA       CLOUDY    20  17  88 NE8       30.15R WCI  10
JEFFERSON CITY CLEAR     24  18  77 E5        30.17R WCI  18
ROLLA          CLOUDY    23  18  81 E8        30.09F WCI  14
OSAGE BEACH    CLEAR     21  16  79 NE7       30.12S WCI  13
SPRINGFIELD    CLOUDY    29  16  58 NE5       30.04R WCI  24
BRANSON        CLEAR     27  18  69 CALM      30.03R
JOPLIN         CLOUDY    32  23  69 NE13      30.05R WCI  22
WEST PLAINS    CLOUDY    21  11  65 NE8       30.07R WCI  11

$$

IAZ060-094-KSZ022-034>040-054-083-096-NEZ052-066-093-111100-
...KANSAS...SOUTHEAST NEBRASKA AND IOWA...

CITY           SKY/WX    TMP DP  RH WIND       PRES   REMARKS
TOPEKA         CLEAR     25  20  81 N7        30.18R WCI  17
MANHATTAN      CLEAR     26  22  84 NE12      30.19R WCI  16
EMPORIA        CLEAR     26  21  81 NE13      30.12R WCI  15
CHANUTE        CLOUDY    29  22  75 NE17      30.09R WCI  17
WICHITA        CLOUDY    38  29  70 N7        30.10R WCI  33
OMAHA          PTCLDY    16  10  77 NE6       30.25F WCI   7
LINCOLN        CLOUDY    18  14  84 N8        30.25S WCI   8
FALLS CITY     CLOUDY    21  18  88 N6        30.21R WCI  13
LAMONI         CLOUDY    17  12  80 NE12      30.22R WCI   4
DES MOINES     CLOUDY    10  -1  61 NE9       30.27R WCI  -3

$$





USA.gov is the U.S. government's official web portal to all federal, state and local government web resources and services.